User: anonymous   Login
Location: Vancouver
(49.2500°N, 123.1330°W)
Time: 05:09:30
(UTC-07:00)
Language:

Cosmos 1864 Rocket - Orbit

View from above orbital plane
View from above orbital plane
View from above satellite
View from above satellite

Ground track
Ground track

The orbit data is extracted from the following two-line orbital elements,

1 18161U 87057B   15244.10795406  .00000085  00000-0  70348-4 0  9991
2 18161  82.9350 199.3872 0031063 349.7240 148.4793 13.76907963394077
Epoch (UTC): 01 September 2015 02:35:27
Eccentricity: 0.0031063
inclination: 82.9350°
perigee height: 952 km
apogee height: 998 km
right ascension of ascending node: 199.3872°
argument of perigee: 349.7240°
revolutions per day: 13.76907963
mean anomaly at epoch: 148.4793°
orbit number at epoch: 39407

The dashed part of the orbit path shows where the satellite is in the earth's shadow,  

DLR